Location: Unspecified
(0.0000°N, 0.0000°E)
Time: 19:04:41
(UTC+00:00)

Vanguard 1 - Pass Details

Date: 22 November 2019
Orbit: 652 x 3832 km, 34.3° (Epoch: 09 December)

Event Time Altitude Azimuth Distance (km) Brightness Sun altitude
Rises 08:27:00 0° 260° (W) 7,563 14.2 37.4°
Reaches altitude 10° 08:34:08 10° 272° (W) 6,088 13.8 39.0°
Maximum altitude 08:47:05 25° 319° (NW) 3,814 12.9 41.8°
Drops below altitude 10° 08:55:40 10° 11° (N) 3,914 13.1 43.7°
Sets 08:59:03 0° 25° (NNE) 4,482 13.4 44.5°
